| time (UTC) | temp C | wind direction | speed KPH | gust KPH | rain 1hr cm | rain 24hr cm | rain mn cm | humidity % | barometer mb |
| 20260505204504 | 1 | 79 | 12.9 | 20.9 | 0.03 | 0.56 | 0.43 | 95 | 1009.9 |
| 20260505204502 | 1 | 79 | 11.3 | 20.9 | 0.03 | 0.56 | 0.43 | 95 | 1005.4 |
| 20260505204005 | 1 | 92 | 12.9 | 20.9 | 0.03 | 0.56 | 0.43 | 95 | 1009.9 |
| 20260505203504 | 1 | 84 | 11.3 | 19.3 | 0.03 | 0.56 | 0.43 | 95 | 1010.0 |
| 20260505203005 | 1 | 107 | 9.7 | 20.9 | 0.05 | 0.56 | 0.43 | 95 | 1010.0 |
| 20260505203003 | 1 | 107 | 9.7 | 20.9 | 0.05 | 0.56 | 0.43 | 95 | 1005.5 |
| 20260505202005 | 2 | 98 | 9.7 | 19.3 | 0.05 | 0.56 | 0.43 | 95 | 1010.0 |
| 20260505201507 | 1 | 61 | 12.9 | 19.3 | 0.05 | 0.56 | 0.43 | 95 | 1005.4 |
| 20260505201505 | 1 | 61 | 12.9 | 19.3 | 0.05 | 0.56 | 0.43 | 95 | 1010.1 |
| 20260505201005 | 1 | 104 | 9.7 | 20.9 | 0.05 | 0.56 | 0.43 | 95 | 1010.1 |
| 20260505200505 | 1 | 101 | 12.9 | 20.9 | 0.03 | 0.53 | 0.41 | 94 | 1010.2 |
| 20260505200006 | 1 | 104 | 14.5 | 20.9 | 0.03 | 0.53 | 0.41 | 95 | 1010.2 |
| 20260505200003 | 1 | 104 | 12.9 | 20.9 | 0.03 | 0.53 | 0.41 | 95 | 1005.4 |
| 20260505195504 | 1 | 84 | 12.9 | 17.7 | 0.03 | 0.53 | 0.41 | 94 | 1010.3 |
| 20260505195007 | 1 | 71 | 12.9 | 19.3 | 0.03 | 0.53 | 0.41 | 94 | 1010.3 |
| 20260505194504 | 1 | 88 | 12.9 | 19.3 | 0.03 | 0.53 | 0.41 | 94 | 1010.4 |
| 20260505194502 | 1 | 88 | 12.9 | 19.3 | 0.03 | 0.53 | 0.41 | 94 | 1005.4 |
| 20260505193504 | 1 | 54 | 11.3 | 16.1 | 0.05 | 0.53 | 0.41 | 94 | 1010.4 |
| 20260505193006 | 1 | 81 | 9.7 | 16.1 | 0.03 | 0.51 | 0.38 | 94 | 1010.4 |
| 20260505193002 | 1 | 81 | 9.7 | 16.1 | 0.03 | 0.51 | 0.38 | 94 | 1005.4 |
| 20260505192005 | 1 | 79 | 8.0 | 16.1 | 0.03 | 0.51 | 0.38 | 94 | 1010.6 |
| 20260505191504 | 1 | 86 | 9.7 | 19.3 | 0.05 | 0.51 | 0.38 | 94 | 1010.5 |
| 20260505191502 | 1 | 86 | 9.7 | 19.3 | 0.05 | 0.51 | 0.38 | 94 | 1005.3 |
| 20260505191005 | 1 | 82 | 11.3 | 19.3 | 0.05 | 0.51 | 0.38 | 94 | 1010.6 |
| 20260505190006 | 1 | 70 | 9.7 | 16.1 | 0.05 | 0.51 | 0.38 | 95 | 1010.7 |
| 20260505185004 | 1 | 65 | 9.7 | 19.3 | 0.05 | 0.51 | 0.38 | 95 | 1010.8 |
| 20260505184504 | 1 | 113 | 9.7 | 16.1 | 0.05 | 0.51 | 0.38 | 95 | 1010.7 |
| 20260505184005 | 1 | 73 | 9.7 | 16.1 | 0.05 | 0.51 | 0.38 | 95 | 1010.8 |
| 20260505183504 | 1 | 76 | 9.7 | 17.7 | 0.03 | 0.48 | 0.36 | 95 | 1010.9 |
| 20260505183005 | 1 | 68 | 11.3 | 16.1 | 0.03 | 0.48 | 0.36 | 95 | 1011.0 |
| 20260505183003 | 1 | 68 | 11.3 | 16.1 | 0.03 | 0.48 | 0.36 | 95 | 1005.3 |
| 20260505182504 | 1 | 80 | 11.3 | 16.1 | 0.05 | 0.48 | 0.36 | 95 | 1011.1 |
| 20260505182006 | 1 | 98 | 11.3 | 16.1 | 0.05 | 0.48 | 0.36 | 95 | 1011.2 |
| 20260505181505 | 1 | 101 | 8.0 | 16.1 | 0.03 | 0.46 | 0.33 | 95 | 1005.4 |
| 20260505181006 | 1 | 84 | 8.0 | 14.5 | 0.03 | 0.46 | 0.33 | 96 | 1011.3 |
| 20260505180503 | 1 | 71 | 9.7 | 17.7 | 0.03 | 0.46 | 0.33 | 95 | 1011.3 |
| 20260505180006 | 1 | 74 | 11.3 | 17.7 | 0.03 | 0.46 | 0.33 | 94 | 1011.3 |
| 20260505180002 | 1 | 74 | 9.7 | 17.7 | 0.03 | 0.46 | 0.33 | 94 | 1005.1 |
| 20260505175004 | 1 | 72 | 9.7 | 17.7 | 0.03 | 0.46 | 0.33 | 95 | 1011.4 |
| 20260505174505 | 1 | 59 | 9.7 | 16.1 | 0.05 | 0.46 | 0.33 | 95 | 1011.4 |
| 20260505174005 | 1 | 102 | 12.9 | 16.1 | 0.05 | 0.46 | 0.33 | 95 | 1011.4 |
| 20260505173504 | 1 | 98 | 11.3 | 16.1 | 0.05 | 0.46 | 0.33 | 95 | 1011.4 |
| 20260505173005 | 0 | 75 | 11.3 | 16.1 | 0.05 | 0.46 | 0.33 | 95 | 1011.5 |
| 20260505173002 | 0 | 75 | 9.7 | 16.1 | 0.05 | 0.46 | 0.33 | 95 | 1005.2 |
| 20260505172504 | 1 | 94 | 9.7 | 14.5 | 0.03 | 0.43 | 0.30 | 95 | 1011.7 |
| 20260505172005 | 0 | 86 | 11.3 | 16.1 | 0.03 | 0.43 | 0.30 | 95 | 1011.7 |
| 20260505171504 | 0 | 94 | 12.9 | 16.1 | 0.03 | 0.43 | 0.30 | 95 | 1011.7 |
| 20260505171502 | 0 | 94 | 12.9 | 16.1 | 0.03 | 0.43 | 0.30 | 95 | 1005.3 |
| 20260505171005 | 0 | 71 | 11.3 | 14.5 | 0.05 | 0.43 | 0.30 | 96 | 1011.7 |
| 20260505170504 | 0 | 84 | 11.3 | 19.3 | 0.05 | 0.43 | 0.30 | 95 | 1011.8 |
| 20260505170002 | 0 | 72 | 9.7 | 19.3 | 0.05 | 0.43 | 0.30 | 95 | 1005.3 |
| 20260505165509 | 0 | 74 | 11.3 | 16.1 | 0.05 | 0.43 | 0.30 | 96 | 1011.8 |
| 20260505165026 | 0 | 80 | 12.9 | 16.1 | 0.05 | 0.43 | 0.30 | 96 | 1011.8 |
| 20260505164602 | 0 | 55 | 8.0 | 16.1 | 0.03 | 0.41 | 0.28 | 96 | 1005.2 |
| 20260505164005 | 0 | 63 | 9.7 | 16.1 | 0.03 | 0.41 | 0.28 | 96 | 1011.9 |
| 20260505163510 | 0 | 55 | 9.7 | 16.1 | 0.05 | 0.41 | 0.28 | 96 | 1012.0 |
| 20260505163007 | 0 | 68 | 8.0 | 12.9 | 0.05 | 0.41 | 0.28 | 96 | 1012.1 |
| 20260505163002 | 0 | 68 | 6.4 | 12.9 | 0.05 | 0.41 | 0.28 | 96 | 1005.4 |
| 20260505162019 | 0 | 48 | 9.7 | 16.1 | 0.05 | 0.41 | 0.28 | 96 | 1012.0 |
| 20260505161505 | 0 | 41 | 9.7 | 14.5 | 0.05 | 0.41 | 0.28 | 96 | 1011.9 |
| 20260505161503 | 0 | 41 | 8.0 | 14.5 | 0.05 | 0.41 | 0.28 | 96 | 1005.1 |
| 20260505161005 | 0 | 44 | 8.0 | 16.1 | 0.03 | 0.38 | 0.25 | 96 | 1011.9 |
| 20260505160504 | 0 | 35 | 8.0 | 14.5 | 0.03 | 0.38 | 0.25 | 96 | 1011.9 |
| 20260505153007 | 0 | 48 | 9.7 | 17.7 | 0.03 | 0.36 | 0.23 | 96 | 1004.9 |
| 20260505152505 | 0 | 53 | 11.3 | 17.7 | 0.03 | 0.36 | 0.23 | 96 | 1011.9 |
| 20260505152005 | 0 | 46 | 12.9 | 19.3 | 0.03 | 0.36 | 0.23 | 96 | 1011.9 |
| 20260505151505 | 0 | 19 | 11.3 | 19.3 | 0.03 | 0.36 | 0.23 | 96 | 1011.9 |
| 20260505151502 | 0 | 19 | 9.7 | 19.3 | 0.03 | 0.36 | 0.23 | 96 | 1004.7 |
| 20260505151005 | 0 | 30 | 8.0 | 17.7 | 0.03 | 0.36 | 0.23 | 96 | 1011.9 |
| 20260505150504 | 0 | 37 | 12.9 | 17.7 | 0.03 | 0.36 | 0.23 | 96 | 1011.7 |
| 20260505140505 | 0 | 24 | 20.9 | 29.0 | 0.03 | 0.33 | 0.20 | 95 | 1011.6 |
| 20260505125005 | 3 | 69 | 9.7 | 16.1 | 0.10 | 0.30 | 0.18 | 94 | 1009.9 |
| 20260505124505 | 3 | 36 | 8.0 | 14.5 | 0.10 | 0.28 | 0.15 | 94 | 1001.4 |
| 20260505124005 | 3 | 80 | 8.0 | 17.7 | 0.10 | 0.28 | 0.15 | 94 | 1009.8 |
| 20260505123504 | 3 | 108 | 11.3 | 17.7 | 0.10 | 0.28 | 0.15 | 94 | 1009.7 |
| 20260505123006 | 3 | 110 | 11.3 | 19.3 | 0.10 | 0.28 | 0.15 | 94 | 1001.3 |
| 20260505122504 | 3 | 105 | 14.5 | 19.3 | 0.10 | 0.28 | 0.15 | 94 | 1009.7 |
| 20260505122005 | 3 | 106 | 11.3 | 16.1 | 0.10 | 0.28 | 0.15 | 94 | 1009.8 |
| 20260505121505 | 3 | 117 | 9.7 | 17.7 | 0.08 | 0.25 | 0.13 | 94 | 1009.9 |
| 20260505121502 | 3 | 117 | 9.7 | 17.7 | 0.08 | 0.25 | 0.13 | 94 | 1001.5 |
| 20260505121005 | 3 | 119 | 14.5 | 19.3 | 0.08 | 0.25 | 0.13 | 94 | 1009.8 |
| 20260505120505 | 3 | 139 | 14.5 | 19.3 | 0.08 | 0.25 | 0.13 | 94 | 1009.9 |
| 20260505120007 | 3 | 125 | 11.3 | 16.1 | 0.05 | 0.23 | 0.10 | 94 | 1009.8 |
| 20260505115503 | 3 | 117 | 11.3 | 19.3 | 0.03 | 0.20 | 0.08 | 94 | 1009.7 |
| 20260505115005 | 3 | 119 | 11.3 | 17.7 | 0.03 | 0.20 | 0.08 | 94 | 1009.6 |
| 20260505114503 | 3 | 105 | 11.3 | 17.7 | 0.00 | 0.18 | 0.05 | 94 | 1001.3 |
| 20260505114005 | 3 | 111 | 11.3 | 19.3 | 0.00 | 0.18 | 0.05 | 94 | 1009.7 |
| 20260505113504 | 3 | 130 | 12.9 | 19.3 | 0.00 | 0.18 | 0.05 | 93 | 1009.7 |
| 20260505113005 | 3 | 117 | 12.9 | 16.1 | 0.00 | 0.18 | 0.05 | 93 | 1009.7 |
| 20260505113003 | 3 | 117 | 11.3 | 16.1 | 0.00 | 0.18 | 0.05 | 93 | 1001.2 |
| 20260505112005 | 3 | 99 | 9.7 | 14.5 | 0.00 | 0.18 | 0.05 | 93 | 1009.8 |
| 20260505111507 | 3 | 98 | 8.0 | 14.5 | 0.00 | 0.18 | 0.05 | 93 | 1001.4 |
| 20260505111504 | 3 | 98 | 9.7 | 14.5 | 0.00 | 0.18 | 0.05 | 93 | 1009.8 |
| 20260505111004 | 3 | 106 | 8.0 | 16.1 | 0.00 | 0.18 | 0.05 | 93 | 1009.8 |
| 20260505110504 | 3 | 88 | 9.7 | 14.5 | 0.00 | 0.18 | 0.05 | 92 | 1009.7 |
| 20260505101507 | 4 | 108 | 1.6 | 4.8 | 0.00 | 0.18 | 0.05 | 93 | 1000.9 |
| 20260505101005 | 4 | 108 | 3.2 | 9.7 | 0.00 | 0.18 | 0.05 | 93 | 1009.6 |
| 20260505100504 | 3 | 96 | 3.2 | 9.7 | 0.00 | 0.18 | 0.05 | 93 | 1008.9 |
| 20260505100007 | 3 | 84 | 4.8 | 8.0 | 0.00 | 0.18 | 0.05 | 91 | 999.8 |
| 20260505095005 | 4 | 127 | 1.6 | 4.8 | 0.00 | 0.18 | 0.05 | 91 | 1008.9 |
| 20260505094505 | 4 | 127 | 3.2 | 4.8 | 0.00 | 0.18 | 0.05 | 91 | 1009.1 |
| 20260505094005 | 4 | 127 | 3.2 | 4.8 | 0.00 | 0.18 | 0.05 | 91 | 1008.9 |
| 20260505093505 | 4 | 127 | 1.6 | 3.2 | 0.03 | 0.18 | 0.05 | 90 | 1009.1 |
| 20260505093005 | 4 | 127 | 3.2 | 3.2 | 0.03 | 0.18 | 0.05 | 89 | 1009.1 |
| 20260505093002 | 4 | 127 | 1.6 | 3.2 | 0.03 | 0.18 | 0.05 | 89 | 1000.3 |
| 20260505092504 | 5 | 127 | 1.6 | 6.4 | 0.03 | 0.18 | 0.05 | 89 | 1009.2 |
| 20260505091505 | 5 | 127 | 3.2 | 6.4 | 0.03 | 0.18 | 0.05 | 90 | 1009.2 |
| 20260505091502 | 5 | 127 | 1.6 | 6.4 | 0.03 | 0.18 | 0.05 | 90 | 1000.3 |
| 20260505091004 | 5 | 127 | 4.8 | 6.4 | 0.03 | 0.18 | 0.05 | 90 | 1009.3 |
| 20260505090505 | 5 | 127 | 1.6 | 6.4 | 0.03 | 0.18 | 0.05 | 89 | 1009.3 |
| 20260505090007 | 5 | 127 | 4.8 | 8.0 | 0.03 | 0.18 | 0.05 | 89 | 1009.3 |
| 20260505090003 | 5 | 127 | 3.2 | 8.0 | 0.03 | 0.18 | 0.05 | 89 | 1000.3 |
| 20260505085504 | 5 | 127 | 4.8 | 6.4 | 0.03 | 0.18 | 0.05 | 89 | 1009.3 |
| 20260505084504 | 5 | 127 | 1.6 | 8.0 | 0.03 | 0.18 | 0.05 | 90 | 1009.4 |
| 20260505084501 | 5 | 127 | 1.6 | 8.0 | 0.03 | 0.18 | 0.05 | 90 | 1000.4 |
| 20260505084005 | 5 | 127 | 4.8 | 8.0 | 0.03 | 0.18 | 0.05 | 90 | 1009.3 |
| 20260505083504 | 5 | 127 | 4.8 | 6.4 | 0.00 | 0.15 | 0.03 | 90 | 1009.4 |
| 20260505083005 | 5 | 127 | 0.0 | 3.2 | 0.00 | 0.15 | 0.03 | 90 | 1009.8 |
| 20260505082503 | 5 | 127 | 0.0 | 4.8 | 0.00 | 0.15 | 0.03 | 90 | 1009.9 |
| 20260505082004 | 5 | 127 | 1.6 | 6.4 | 0.00 | 0.15 | 0.03 | 90 | 1009.9 |
| 20260505081502 | 5 | 82 | 1.6 | 4.8 | 0.00 | 0.15 | 0.03 | 91 | 1000.6 |
| 20260505081005 | 5 | 82 | 1.6 | 4.8 | 0.00 | 0.15 | 0.03 | 91 | 1009.8 |
| 20260505080504 | 5 | 82 | 0.0 | 4.8 | 0.00 | 0.15 | 0.03 | 91 | 1010.0 |
| 20260505080005 | 5 | 82 | 3.2 | 9.7 | 0.00 | 0.15 | 0.03 | 90 | 1009.8 |
| 20260505080002 | 5 | 82 | 1.6 | 9.7 | 0.00 | 0.15 | 0.03 | 90 | 1000.8 |
| 20260505075504 | 5 | 82 | 4.8 | 9.7 | 0.00 | 0.15 | 0.03 | 91 | 1009.8 |
| 20260505075006 | 5 | 82 | 3.2 | 11.3 | 0.00 | 0.15 | 0.03 | 90 | 1009.8 |
| 20260505074503 | 6 | 123 | 3.2 | 11.3 | 0.00 | 0.15 | 0.03 | 91 | 1000.9 |
| 20260505074004 | 6 | 130 | 6.4 | 11.3 | 0.00 | 0.15 | 0.03 | 91 | 1009.8 |
| 20260505073505 | 6 | 185 | 6.4 | 11.3 | 0.00 | 0.15 | 0.03 | 91 | 1010.2 |
| 20260505073007 | 6 | 168 | 4.8 | 9.7 | 0.00 | 0.15 | 0.03 | 91 | 1001.3 |
| 20260505073005 | 6 | 168 | 6.4 | 9.7 | 0.00 | 0.15 | 0.03 | 91 | 1010.3 |
| 20260505072503 | 6 | 11 | 3.2 | 4.8 | 0.00 | 0.15 | 0.03 | 91 | 1010.5 |
| 20260505072000 | 6 | 11 | 1.6 | 4.8 | 0.00 | 0.15 | 0.03 | 91 | 1010.5 |
| 20260505071501 | 6 | 11 | 1.6 | 4.8 | 0.00 | 0.15 | 0.03 | 90 | 1001.6 |
| 20260505071458 | 6 | 11 | 1.6 | 4.8 | 0.00 | 0.15 | 0.03 | 90 | 1010.6 |
| 20260505071005 | 6 | 11 | 1.6 | 4.8 | 0.00 | 0.15 | 0.03 | 90 | 1010.6 |
| 20260505070504 | 6 | 11 | 1.6 | 4.8 | 0.03 | 0.15 | 0.03 | 91 | 1010.5 |
| 20260505070006 | 6 | 11 | 0.0 | 3.2 | 0.03 | 0.15 | 0.03 | 90 | 1010.6 |
| 20260505070003 | 6 | 11 | 0.0 | 3.2 | 0.03 | 0.15 | 0.03 | 90 | 1001.6 |
| 20260505065504 | 6 | 11 | 0.0 | 1.6 | 0.03 | 0.15 | 0.03 | 91 | 1010.6 |
| 20260505065005 | 6 | 11 | 0.0 | 1.6 | 0.03 | 0.15 | 0.03 | 91 | 1010.7 |
| 20260505064504 | 6 | 11 | 0.0 | 3.2 | 0.03 | 0.15 | 0.03 | 90 | 1010.6 |
| 20260505064502 | 6 | 11 | 0.0 | 3.2 | 0.03 | 0.15 | 0.03 | 90 | 1001.7 |
| 20260505064004 | 6 | 11 | 1.6 | 3.2 | 0.05 | 0.15 | 0.03 | 90 | 1010.7 |
| 20260505063504 | 6 | 11 | 0.0 | 6.4 | 0.05 | 0.15 | 0.03 | 90 | 1010.6 |
| 20260505063002 | 6 | 11 | 3.2 | 6.4 | 0.05 | 0.15 | 0.03 | 90 | 1001.5 |
| 20260505062004 | 6 | 11 | 3.2 | 6.4 | 0.05 | 0.15 | 0.03 | 89 | 1010.5 |
| 20260505061509 | 6 | 11 | 3.2 | 8.0 | 0.05 | 0.15 | 0.03 | 89 | 1001.6 |
| 20260505061505 | 6 | 11 | 3.2 | 8.0 | 0.05 | 0.15 | 0.03 | 89 | 1010.6 |
| 20260505061004 | 6 | 11 | 4.8 | 8.0 | 0.08 | 0.15 | 0.03 | 90 | 1010.7 |
| 20260505060504 | 6 | 11 | 1.6 | 6.4 | 0.05 | 0.13 | 0.00 | 91 | 1010.7 |
| 20260505060010 | 6 | 11 | 1.6 | 9.7 | 0.05 | 0.13 | 0.00 | 91 | 1010.9 |
| 20260505060004 | 6 | 11 | 0.0 | 9.7 | 0.05 | 0.13 | 0.00 | 91 | 1001.9 |
| 20260505055505 | 6 | 11 | 4.8 | 9.7 | 0.05 | 0.13 | 0.13 | 91 | 1011.2 |
| 20260505055005 | 6 | 341 | 3.2 | 4.8 | 0.05 | 0.13 | 0.13 | 92 | 1011.0 |
| 20260505054505 | 6 | 341 | 1.6 | 4.8 | 0.05 | 0.13 | 0.13 | 92 | 1011.0 |
| 20260505054503 | 6 | 341 | 1.6 | 4.8 | 0.05 | 0.13 | 0.13 | 92 | 1002.0 |
| 20260505054006 | 6 | 341 | 0.0 | 8.0 | 0.05 | 0.10 | 0.10 | 92 | 1011.0 |
| 20260505053505 | 6 | 341 | 1.6 | 8.0 | 0.05 | 0.10 | 0.10 | 91 | 1011.0 |
| 20260505053006 | 6 | 321 | 1.6 | 4.8 | 0.08 | 0.10 | 0.10 | 91 | 1010.9 |
| 20260505053002 | 6 | 321 | 1.6 | 4.8 | 0.08 | 0.10 | 0.10 | 91 | 1001.9 |
| 20260505052505 | 6 | 321 | 0.0 | 8.0 | 0.08 | 0.10 | 0.10 | 90 | 1011.0 |
| 20260505052005 | 6 | 321 | 1.6 | 8.0 | 0.10 | 0.10 | 0.10 | 90 | 1011.0 |
| 20260505051507 | 6 | 321 | 0.0 | 6.4 | 0.10 | 0.10 | 0.10 | 90 | 1002.0 |
| 20260505051504 | 6 | 321 | 1.6 | 6.4 | 0.10 | 0.10 | 0.10 | 90 | 1011.0 |
| 20260505051006 | 6 | 321 | 1.6 | 12.9 | 0.08 | 0.08 | 0.08 | 90 | 1011.0 |
| 20260505050504 | 6 | 342 | 6.4 | 14.5 | 0.08 | 0.08 | 0.08 | 89 | 1010.8 |
| 20260505050107 | 6 | 315 | 6.4 | 14.5 | 0.08 | 0.08 | 0.08 | 89 | 1001.7 |
| 20260505041508 | 8 | 285 | 8.0 | 12.9 | 0.00 | 0.00 | 0.00 | 68 | 1001.4 |
| 20260505041005 | 8 | 301 | 8.0 | 12.9 | 0.00 | 0.00 | 0.00 | 68 | 1010.5 |
| 20260505040505 | 8 | 277 | 4.8 | 11.3 | 0.00 | 0.00 | 0.00 | 69 | 1010.4 |
| 20260505040006 | 8 | 291 | 4.8 | 6.4 | 0.00 | 0.00 | 0.00 | 71 | 1010.4 |
| 20260505040004 | 8 | 291 | 4.8 | 6.4 | 0.00 | 0.00 | 0.00 | 71 | 1001.1 |
| 20260505035504 | 8 | 9 | 1.6 | 3.2 | 0.00 | 0.00 | 0.00 | 70 | 1010.3 |
| 20260505035005 | 8 | 9 | 1.6 | 3.2 | 0.00 | 0.00 | 0.00 | 72 | 1010.1 |
| 20260505034504 | 8 | 9 | 0.0 | 1.6 | 0.00 | 0.00 | 0.00 | 73 | 1010.2 |
| 20260505034502 | 8 | 9 | 0.0 | 1.6 | 0.00 | 0.00 | 0.00 | 73 | 1000.9 |
| 20260505034007 | 8 | 9 | 0.0 | 3.2 | 0.00 | 0.00 | 0.00 | 71 | 1010.3 |
| 20260505033005 | 8 | 9 | 0.0 | 0.0 | 0.00 | 0.00 | 0.00 | 72 | 1010.1 |
| 20260505032459 | 8 | 9 | 0.0 | 1.6 | 0.00 | 0.00 | 0.00 | 70 | 1010.1 |
| 20260505031505 | 8 | 9 | 0.0 | 3.2 | 0.00 | 0.00 | 0.00 | 68 | 1000.8 |
| 20260505031005 | 8 | 9 | 1.6 | 3.2 | 0.00 | 0.00 | 0.00 | 66 | 1010.0 |
| 20260505030504 | 8 | 9 | 0.0 | 0.0 | 0.00 | 0.00 | 0.00 | 67 | 1010.0 |
| 20260505030006 | 8 | 9 | 0.0 | 0.0 | 0.00 | 0.00 | 0.00 | 66 | 1010.0 |
| 20260505030003 | 8 | 9 | 0.0 | 0.0 | 0.00 | 0.00 | 0.00 | 66 | 1000.7 |
| 20260505025504 | 8 | 9 | 0.0 | 0.0 | 0.00 | 0.00 | 0.00 | 66 | 1010.0 |
| 20260505024505 | 8 | 9 | 0.0 | 0.0 | 0.00 | 0.00 | 0.00 | 66 | 1009.7 |
| 20260505024502 | 8 | 9 | 0.0 | 0.0 | 0.00 | 0.00 | 0.00 | 66 | 1000.4 |
| 20260505024004 | 9 | 9 | 0.0 | 4.8 | 0.00 | 0.00 | 0.00 | 66 | 1009.6 |
| 20260505023505 | 9 | 9 | 0.0 | 4.8 | 0.00 | 0.00 | 0.00 | 67 | 1009.6 |
| 20260505023008 | 9 | 9 | 0.0 | 1.6 | 0.00 | 0.00 | 0.00 | 67 | 1000.3 |
| 20260505023005 | 9 | 9 | 0.0 | 1.6 | 0.00 | 0.00 | 0.00 | 67 | 1009.5 |
| 20260505022504 | 9 | 9 | 0.0 | 3.2 | 0.00 | 0.00 | 0.00 | 67 | 1009.7 |
| 20260505022012 | 10 | 9 | 0.0 | 22.5 | 0.00 | 0.00 | 0.00 | 66 | 1009.5 |
| 20260505021504 | 10 | 5 | 12.9 | 22.5 | 0.00 | 0.00 | 0.00 | 62 | 1009.5 |
| 20260505021009 | 10 | 49 | 4.8 | 8.0 | 0.00 | 0.00 | 0.00 | 62 | 1009.6 |
| 20260505020501 | 10 | 29 | 1.6 | 3.2 | 0.00 | 0.00 | 0.00 | 61 | 1009.7 |
| 20260505020014 | 10 | 30 | 0.0 | 4.8 | 0.00 | 0.00 | 0.00 | 59 | 1009.5 |
| 20260505020003 | 10 | 30 | 0.0 | 4.8 | 0.00 | 0.00 | 0.00 | 59 | 1000.2 |
| 20260505015459 | 10 | 30 | 0.0 | 4.8 | 0.00 | 0.00 | 0.00 | 61 | 1009.5 |
| 20260505015010 | 10 | 30 | 3.2 | 6.4 | 0.00 | 0.00 | 0.00 | 60 | 1009.6 |
| 20260505014504 | 10 | 43 | 1.6 | 8.0 | 0.00 | 0.00 | 0.00 | 62 | 1009.4 |
| 20260505014013 | 10 | 355 | 0.0 | 16.1 | 0.00 | 0.00 | 0.00 | 63 | 1009.5 |
| 20260505013504 | 10 | 20 | 8.0 | 22.5 | 0.00 | 0.00 | 0.00 | 62 | 1009.5 |
| 20260505013002 | 10 | 19 | 12.9 | 25.7 | 0.00 | 0.00 | 0.00 | 61 | 1000.2 |
| 20260505012505 | 10 | 31 | 16.1 | 35.4 | 0.00 | 0.00 | 0.00 | 59 | 1009.5 |
| 20260505012006 | 11 | 355 | 20.9 | 35.4 | 0.00 | 0.00 | 0.00 | 54 | 1009.2 |
| 20260505011506 | 11 | 9 | 12.9 | 25.7 | 0.00 | 0.00 | 0.00 | 49 | 999.8 |
| 20260505011013 | 12 | 21 | 12.9 | 27.4 | 0.00 | 0.00 | 0.00 | 47 | 1008.8 |
| 20260505010504 | 12 | 42 | 17.7 | 32.2 | 0.00 | 0.00 | 0.00 | 46 | 1008.6 |
| 20260505010012 | 13 | 34 | 16.1 | 27.4 | 0.00 | 0.00 | 0.00 | 42 | 999.0 |
| 20260505005504 | 13 | 11 | 14.5 | 19.3 | 0.00 | 0.00 | 0.00 | 39 | 1008.4 |
| 20260505005012 | 13 | 21 | 9.7 | 20.9 | 0.00 | 0.00 | 0.00 | 39 | 1008.3 |
| 20260505004503 | 13 | 27 | 8.0 | 22.5 | 0.00 | 0.00 | 0.00 | 38 | 998.8 |
| 20260505004010 | 13 | 20 | 14.5 | 24.1 | 0.00 | 0.00 | 0.00 | 38 | 1008.4 |
| 20260505003505 | 13 | 350 | 14.5 | 24.1 | 0.00 | 0.00 | 0.00 | 38 | 1008.3 |
| 20260505003010 | 13 | 355 | 4.8 | 16.1 | 0.00 | 0.00 | 0.00 | 38 | 1008.5 |
| 20260505003008 | 13 | 355 | 4.8 | 16.1 | 0.00 | 0.00 | 0.00 | 38 | 999.1 |
| 20260505002504 | 13 | 342 | 4.8 | 22.5 | 0.00 | 0.00 | 0.00 | 37 | 1008.4 |
| 20260505002010 | 13 | 17 | 11.3 | 22.5 | 0.00 | 0.00 | 0.00 | 37 | 1008.3 |
| 20260505001505 | 13 | 355 | 6.4 | 24.1 | 0.00 | 0.00 | 0.00 | 37 | 1008.2 |
| 20260505001009 | 14 | 58 | 14.5 | 35.4 | 0.00 | 0.00 | 0.00 | 36 | 1008.1 |
| 20260505000504 | 14 | 278 | 6.4 | 35.4 | 0.00 | 0.00 | 0.00 | 36 | 1008.2 |
| 20260505000004 | 14 | 64 | 8.0 | 25.7 | 0.00 | 0.00 | 0.00 | 35 | 998.6 |
| 20260504235504 | 14 | 28 | 9.7 | 22.5 | 0.00 | 0.00 | 0.00 | 35 | 1008.3 |
| 20260504235008 | 14 | 51 | 8.0 | 19.3 | 0.00 | 0.00 | 0.00 | 35 | 1008.3 |
| 20260504234505 | 14 | 345 | 4.8 | 12.9 | 0.00 | 0.00 | 0.00 | 35 | 1008.2 |
| 20260504234012 | 14 | 320 | 3.2 | 19.3 | 0.00 | 0.00 | 0.00 | 36 | 1008.2 |
| 20260504233005 | 14 | 341 | 4.8 | 33.8 | 0.00 | 0.00 | 0.00 | 37 | 1008.1 |
| 20260504233003 | 14 | 341 | 4.8 | 33.8 | 0.00 | 0.00 | 0.00 | 37 | 998.5 |
| 20260504232504 | 14 | 324 | 6.4 | 33.8 | 0.00 | 0.00 | 0.00 | 36 | 1008.1 |
| 20260504232005 | 14 | 319 | 8.0 | 25.7 | 0.00 | 0.00 | 0.00 | 36 | 1007.9 |
| 20260504231504 | 14 | 14 | 11.3 | 27.4 | 0.00 | 0.00 | 0.00 | 35 | 1007.7 |
| 20260504231502 | 14 | 14 | 11.3 | 27.4 | 0.00 | 0.00 | 0.00 | 35 | 998.1 |
| 20260504230504 | 14 | 351 | 14.5 | 40.2 | 0.00 | 0.00 | 0.00 | 35 | 1007.2 |
| 20260504230007 | 15 | 20 | 17.7 | 37.0 | 0.00 | 0.00 | 0.00 | 34 | 1007.2 |
| 20260504230004 | 15 | 20 | 17.7 | 37.0 | 0.00 | 0.00 | 0.00 | 34 | 997.6 |
| 20260504225504 | 15 | 360 | 20.9 | 37.0 | 0.00 | 0.00 | 0.00 | 32 | 1007.0 |
| 20260504225005 | 16 | 332 | 8.0 | 25.7 | 0.00 | 0.00 | 0.00 | 29 | 1007.0 |
| 20260504224504 | 16 | 35 | 16.1 | 20.9 | 0.00 | 0.00 | 0.00 | 27 | 1007.1 |
| 20260504224502 | 16 | 35 | 14.5 | 20.9 | 0.00 | 0.00 | 0.00 | 27 | 997.5 |
| 20260504224005 | 16 | 44 | 12.9 | 17.7 | 0.00 | 0.00 | 0.00 | 28 | 1007.1 |
| 20260504223504 | 16 | 34 | 12.9 | 24.1 | 0.00 | 0.00 | 0.00 | 28 | 1007.0 |
| 20260504223003 | 16 | 46 | 6.4 | 41.8 | 0.00 | 0.00 | 0.00 | 29 | 997.7 |
| 20260504222504 | 16 | 248 | 11.3 | 41.8 | 0.00 | 0.00 | 0.00 | 28 | 1007.3 |
| 20260504222005 | 16 | 297 | 11.3 | 20.9 | 0.00 | 0.00 | 0.00 | 26 | 1007.2 |
| 20260504221509 | 16 | 360 | 4.8 | 14.5 | 0.00 | 0.00 | 0.00 | 26 | 997.4 |
| 20260504221000 | 16 | 360 | 4.8 | 16.1 | 0.00 | 0.00 | 0.00 | 26 | 1007.0 |
| 20260504220007 | 17 | 327 | 8.0 | 16.1 | 0.00 | 0.00 | 0.00 | 25 | 1007.0 |
| 20260504220003 | 17 | 327 | 8.0 | 16.1 | 0.00 | 0.00 | 0.00 | 25 | 997.2 |
| 20260504215504 | 17 | 360 | 4.8 | 17.7 | 0.00 | 0.00 | 0.00 | 24 | 1006.9 |
| 20260504214504 | 17 | 15 | 8.0 | 17.7 | 0.00 | 0.00 | 0.00 | 23 | 1006.9 |
| 20260504214006 | 17 | 355 | 8.0 | 24.1 | 0.00 | 0.00 | 0.00 | 25 | 1006.9 |
| 20260504213504 | 17 | 12 | 17.7 | 24.1 | 0.00 | 0.00 | 0.00 | 23 | 1006.9 |
| 20260504213007 | 18 | 26 | 12.9 | 22.5 | 0.00 | 0.00 | 0.00 | 24 | 1006.9 |
| 20260504213003 | 18 | 26 | 11.3 | 22.5 | 0.00 | 0.00 | 0.00 | 24 | 997.1 |
| 20260504212505 | 18 | 69 | 12.9 | 19.3 | 0.00 | 0.00 | 0.00 | 23 | 1006.9 |
| 20260504212005 | 18 | 28 | 12.9 | 25.7 | 0.00 | 0.00 | 0.00 | 24 | 1007.0 |
| 20260504211506 | 18 | 34 | 12.9 | 25.7 | 0.00 | 0.00 | 0.00 | 24 | 1006.9 |
| 20260504211503 | 18 | 34 | 12.9 | 25.7 | 0.00 | 0.00 | 0.00 | 24 | 997.1 |
| 20260504211005 | 18 | 20 | 17.7 | 27.4 | 0.00 | 0.00 | 0.00 | 23 | 1007.1 |
| 20260504210505 | 19 | 24 | 16.1 | 27.4 | 0.00 | 0.00 | 0.00 | 22 | 1007.0 |
| 20260504210006 | 20 | 11 | 8.0 | 20.9 | 0.00 | 0.00 | 0.00 | 23 | 1007.1 |
| 20260504210003 | 20 | 11 | 8.0 | 20.9 | 0.00 | 0.00 | 0.00 | 23 | 997.2 |
| 20260504205504 | 19 | 9 | 9.7 | 22.5 | 0.00 | 0.00 | 0.00 | 23 | 1007.1 |
| 20260504205005 | 19 | 21 | 8.0 | 27.4 | 0.00 | 0.00 | 0.00 | 24 | 1007.2 |